User: anonymous   Login
Location: Newark
(49.1000°N, 0.4667°W)
Time: 00:46:41
(UTC+00:00)
Language:

BEESAT 3 - Orbit

View from above orbital plane
View from above orbital plane
View from above satellite
View from above satellite

Ground track
Ground track

The orbit data is extracted from the following two-line orbital elements,

1 39134U 13015E   20188.50879925 +.00000627 +00000-0 +37109-4 0  9993
2 39134 064.8615 216.0563 0031911 240.6486 119.1453 15.21101334398577
Epoch (UTC): 06 July 2020 12:12:40
Eccentricity: 0.0031911
inclination: 64.8615°
perigee height: 480 km
apogee height: 524 km
right ascension of ascending node: 216.0563°
argument of perigee: 240.6486°
revolutions per day: 15.21101334
mean anomaly at epoch: 119.1453°
orbit number at epoch: 39857

The dashed part of the orbit path shows where the satellite is in the earth's shadow,  

DLR